{"data":{"norad_id":68790,"intl_designator":"2026-086AA","name":"STARLINK-37313","alt_names":[],"object_type":"PAYLOAD","status":"ACTIVE","operator":null,"country":"US","launch_date":"2026-04-19","launch_site_code":"AFWTR","launch_vehicle":null,"mission":null,"orbit_class":"UNKNOWN","rcs_meters":null,"size_class":null,"mass_kg":null,"dimensions":null,"purposes":["comms"],"wikipedia_slug":null,"has_3d_model":false,"image_url":null,"decayed_at":null,"tle_current":{"epoch":"2026-09-19T08:17:32.871840Z","epoch_age_seconds":139849,"freshness":"FRESH","line1":"1 68790U 26086AA  26262.34551935  .00020203  00000+0  62611-3 0  9990","line2":"2 68790  97.2804 298.6386 0001933  91.7028 268.4436 15.33461109 23569","mean_motion":15.33461109,"eccentricity":0.0001933,"inclination_deg":97.2804,"raan_deg":298.6386,"arg_perigee_deg":91.7028,"mean_anomaly_deg":268.4436,"bstar":0.00062611,"rev_number":2356,"period_min":93.905218172703,"perigee_km":464.17237173423,"apogee_km":466.81811996048,"semimajor_km":6843.6322458474,"source":"CELESTRAK","updated_at":"2026-09-20T09:00:44.004630Z"}}}